Lucky 17 - Race 3 - 250 MI.- Salina KS

Station: 250 Miles - B Race

Distance: 250 Miles

Release: 29-Nov-2018 08:30

Weather Release: clear    Arrival: Clear

Wind at Release: 3 mph     Wind at Arrival: sae

Temp at Release: °    Temp at Arrival: °

Lofts: 42

Birds: 69

Clocked: 55

birds ran into heavy clouds in middle of course
Drops Pos Breeder Pigeon Name Color Sex Ent Arrival Speed To Win Eligible Points
900 1 Francis Garrigues - TX 0889-AU18-BEE BC H 1 13:33:35.00 1449.355 00:00:00 Yes 250
500 2 Walt Stammer - CA 11134-AU18-ARPU BB H 1 13:33:38.00 1449.116 00:00:03 Yes 248
400 3 David Knightes - VT 2256-AU18-CVR BB H 1 13:33:42.00 1448.798 00:00:07 Yes 246
300 4 Hollywood Lou Loft - FL 0278-AU18-CCIF BC H 1 13:34:18.00 1445.942 00:00:43 Yes 244
250 5 Dennis Godair - OK 8076-AU18-FOYS BB H 1 13:34:21.00 1445.704 00:00:46 Yes 242
6 Allen Jacobs - PA 7529-IF18-ERIE BC H 1 13:51:24.00 1369.011 00:17:49 Yes 240
7 Kauai Hui - HI 0318-AU18-KAU Puuwai BC H 1 13:51:27.00 1368.798 00:17:52 Yes 238
8 Cemfly Loft - FL 10457-AU18-AA UNKN C 1 14:12:25.00 1284.984 00:38:50 Yes 236
9 Cbs & Steve - OK 0786-AU18-CBS Mack Truck GRIZ H 1 14:12:27.00 1284.859 00:38:52 Yes 234
10 A P C Loft - TX 18124-AU18-APC H 1 14:21:29.00 1251.837 00:47:54 Yes 232
11 Danny Lum/Jerry Cantere - HI 8649-AU18-NIC BCPD H 1 14:33:09.00 1211.621 00:59:34 Yes 230
12 A P C Loft - TX 18114-AU18-APC BB H 2 14:39:56.00 1189.403 01:06:21 Yes 228
13 Bachand Loft - VT 2027-AU18-CVR BC H 1 14:52:51.00 1149.275 01:19:16 Yes 226
14 Cbs & Steve - OK 0731-AU18-CBS Queenie BB H 2 14:52:54.00 1149.125 01:19:19 Yes 224
15 Danny Lum/Jerry Cantere - HI 8642-AU18-NIC DC H 2 15:13:28.00 1090.549 01:39:53 Yes 222
16 A P C Loft - TX 18126-AU18-APC H 3 15:13:30.00 1090.458 01:39:55 Yes 220
62.50 17 Allen Jacobs - PA 7528-IF18-ERIE BC H 2 15:13:31.00 1090.413 01:39:56 Yes 218
18 Radd - OK 41057-AU18-ARPU 139/41249c BBWF H 1 15:13:33.00 1090.323 01:39:58 Yes 216
19 Allen Jacobs - PA 7530-IF18-ERIE BC H 3 15:13:34.00 1090.278 01:39:59 Yes 214
20 Cbs & Steve - OK 0729-AU18-CBS Bonnie Parker BB H 3 15:42:43.00 1016.832 02:09:08 Yes 212
21 Juan Cintoria - CA 43719-AU18-ARPU BLUE H 1 15:44:59.00 1011.533 02:11:24 Yes 210
22 Radd - OK 41042-AU18-ARPU 2350/1821 BC H 2 15:47:16.00 1006.251 02:13:41 Yes 208
23 Radd - OK 41065-AU18-ARPU 2855/2049 T BB H 3 15:50:03.00 999.886 02:16:28 Yes 206
24 Damon Graves - OK 56933-AU18-ARPU BB H 1 15:54:03.00 990.879 02:20:28 Yes 204
25 Radd - OK 41038-AU18-ARPU 2855/2049 BC H 4 15:58:17.00 981.522 02:24:42 Yes 202
26 A P C Loft - TX 18071-AU18-APC BB H 4 15:58:22.00 981.340 02:24:47 Yes 200
27 Radd - OK 41002-AU18-ARPU 2855/2049 BC H 5 16:08:14.00 960.210 02:34:39 Yes 198
28 A P C Loft - TX 18106-AU18-APC H 5 16:31:00.00 914.761 02:57:25 Yes 196
29 Radd - OK 41012-AU18-ARPU 2350/1821 N BB H 6 16:36:37.00 904.202 03:03:02 Yes 194
30 Kauai Hui - HI 0317-AU18-KAU Kalaheo BCPD H 2 16:50:55.00 878.390 03:17:20 Yes 192
31 Radd - OK 41075-AU18-ARPU 1580/1743 M BB C 7 16:50:56.00 878.360 03:17:21 Yes 190
32 Danny Lum/Jerry Cantere - HI 8648-AU18-NIC BB H 3 2018-11-30 08:26:08.00 674.691 05:48:34 Yes 188
33 Texanoma - OK 50339-AU18-ARPU BC H 1 2018-11-30 08:52:52.00 648.123 06:15:18 Yes 186
34 John/Ralph Sherrick/Mcreynolds - OK 0805-AU18-PRO BC H 1 2018-11-30 09:19:14.00 623.892 06:41:40 Yes 184
35 Ander Yen - IL 8190-AU18-SIRP BC H 1 2018-11-30 09:35:33.00 609.784 06:57:59 Yes 182
36 Bachand Loft - VT 2001-AU18-CVR DC H 2 2018-11-30 09:35:39.00 609.700 06:58:05 Yes 180
37 A P C Loft - TX 18133-AU18-APC H 6 2018-11-30 09:35:41.00 609.672 06:58:07 Yes 178
38 Danny Lum/Jerry Cantere - HI 8806-AU18-NIC SIL H 4 2018-11-30 09:47:03.00 600.218 07:09:29 Yes 176
39 Kauai Hui - HI 0202-AU18-KAU Anahola DUN H 3 2018-11-30 09:47:09.00 600.136 07:09:35 Yes 174
40 ! ! ! S P E E D S - R A C E R S ! ! ! - FL 0121-IF18-MCF The Miracle Bird UNKN C 1 2018-11-30 10:14:27.00 578.592 07:36:53 Yes 172
41 Danny Lum/Jerry Cantere - HI 8646-AU18-NIC BB H 5 2018-11-30 10:41:30.00 558.718 08:03:56 Yes 170
42 Francis Garrigues - TX 0886-AU18-BEE BWF H 2 2018-11-30 10:45:20.00 556.012 08:07:46 Yes 168
43 Dick Briggs - TX 0263-AU18-WF Mona 2178/786 BCPD H 1 2018-11-30 10:45:55.00 555.602 08:08:21 Yes 166
44 Flying D Loft - TX 0634-AU18-FLYD BC H 1 2018-11-30 10:47:52.00 554.238 08:10:18 Yes 164
45 Radd - OK 41063-AU18-ARPU 2438/41250 H DC H 8 2018-11-30 11:09:07.00 539.789 08:31:33 Yes 162
46 Ander Yen - IL 8195-AU18-SIRP BC H 2 2018-11-30 11:12:32.00 537.536 08:34:58 Yes 160
47 Radd - OK 41058-AU18-ARPU 139/41249 BBWF H 9 2018-11-30 11:17:02.00 534.597 08:39:28 Yes 158
48 Rick Weig - OK 0090-AU18-TULS DC H 1 2018-11-30 11:17:16.00 534.445 08:39:42 Yes 156
49 Francis Garrigues - TX 0887-AU18-BEE BB H 3 2018-11-30 11:18:50.00 533.430 08:41:16 Yes 154
50 Francis Garrigues - TX 0888-AU18-BEE BB H 4 2018-11-30 11:41:51.00 518.950 09:04:17 Yes 152
51 Jim Fox - OK 10416-AU18-JEDD BC H 1 2018-11-30 12:36:28.00 487.544 09:58:54 Yes 150
52 Jim Fox - OK 10404-AU18-JEDD DC H 2 2018-11-30 12:58:49.00 475.761 10:21:15 Yes 148
53 Hollywood Lou Loft - FL 19603-AU18-AA GRIZ H 2 2018-11-30 13:03:57.00 473.135 10:26:23 Yes 146
54 Danny Mize - OK 6410-AU18-ARPU GRIZ H 1 2018-11-30 13:27:57.00 461.232 10:50:23 Yes 144
55 Cemfly Loft - FL 10459-AU18-AA B H 2 2018-11-30 15:58:41.00 398.298 13:21:07 Yes 142
Danny Lum/Jerry Cantere - HI 8641-AU18-NIC BCWF H 00:00:00.00 0.000 Yes
Hollywood Lou Loft - FL 0262-AU18-CCIF BB H 00:00:00.00 0.000 Yes
Allen Jacobs - PA 7532-IF18-ERIE BB H 00:00:00.00 0.000 Yes
Danny Mize - OK 6411-AU18-ARPU BB H 00:00:00.00 0.000 Yes
Radd - OK 41003-AU18-ARPU 2185/2194 W BB H 00:00:00.00 0.000 Yes
Radd - OK 41071-AU18-ARPU 2185/2194 W BB H 00:00:00.00 0.000 Yes
Redrock Kennel - OK 17202-AU18-ADA CHOC H 00:00:00.00 0.000 Yes
Chava Loft - CA 45642-AU18-ARPU BLUE H 00:00:00.00 0.000 Yes
Skypirate Loft - OK 50348-AU18-ARPU BB H 00:00:00.00 0.000 Yes
Mesa Loft - FL 5270-AU18-JEDD BB H 00:00:00.00 0.000 Yes
Mesa Loft - FL 5271-AU18-JEDD BB H 00:00:00.00 0.000 Yes
Damon Graves - OK 56932-AU18-ARPU GRIZ C 00:00:00.00 0.000 Yes
Radd - OK 41005-AU18-ARPU 1580/1743 M BB C 00:00:00.00 0.000 Yes
Dennis Godair - OK 8078-AU18-FOYS BCSP H 00:00:00.00 0.000 Yes

There are 179 bird records

Note: These Race Results are unofficial and subject to change until verified by the Race Committee and declared final.